Time,TemperatureF,DewpointF,PressureIn,WindDirection,WindDirectionDegrees,WindSpeedMPH,WindSpeedGustMPH,Humidity,HourlyPrecipIn,Conditions,Clouds,dailyrainin,SoftwareType,DateUTC
2013-05-29 00:02:00,65.0,65.0,29.83,NW,308,3.0,14.0,100,-99.99,,,-99.99,,2013-05-29 04:02:00,
2013-05-29 00:12:00,64.0,64.0,29.85,NNW,336,3.0,5.0,100,-99.99,,,-99.99,,2013-05-29 04:12:00,
2013-05-29 00:23:00,64.0,64.0,29.85,NNW,336,3.0,5.0,100,-99.99,,,-99.99,,2013-05-29 04:23:00,
2013-05-29 00:33:00,64.0,64.0,29.84,ESE,120,0.0,3.0,100,-99.99,,,-99.99,,2013-05-29 04:33:00,
2013-05-29 00:42:00,64.0,64.0,29.84,ESE,120,0.0,3.0,100,-99.99,,,-99.99,,2013-05-29 04:42:00,
2013-05-29 00:52:00,63.0,63.0,29.83,SSE,167,1.0,1.0,100,-99.99,,,-99.99,,2013-05-29 04:52:00,
2013-05-29 01:02:00,63.0,63.0,29.79,ESE,107,0.0,2.0,100,-99.99,,,-99.99,,2013-05-29 05:02:00,
2013-05-29 01:12:00,63.0,63.0,29.79,ESE,107,0.0,2.0,100,-99.99,,,-99.99,,2013-05-29 05:12:00,
2013-05-29 01:22:00,63.0,63.0,29.84,NW,318,0.0,0.0,100,-99.99,,,-99.99,,2013-05-29 05:22:00,
2013-05-29 01:32:00,63.0,63.0,29.83,WSW,253,0.0,1.0,100,-99.99,,,-99.99,,2013-05-29 05:32:00,
2013-05-29 01:42:00,63.0,63.0,29.83,WSW,253,0.0,1.0,100,-99.99,,,-99.99,,2013-05-29 05:42:00,
2013-05-29 01:52:00,63.0,63.0,29.83,NW,313,0.0,2.0,100,-99.99,,,-99.99,,2013-05-29 05:52:00,
2013-05-29 02:01:00,63.0,63.0,29.83,NW,313,1.0,2.0,100,-99.99,,,-99.99,,2013-05-29 06:01:00,
2013-05-29 02:11:00,63.0,63.0,29.83,NW,313,1.0,2.0,100,-99.99,,,-99.99,,2013-05-29 06:11:00,
2013-05-29 02:21:00,63.0,63.0,29.83,NW,313,0.0,0.0,100,-99.99,,,-99.99,,2013-05-29 06:21:00,
2013-05-29 02:31:00,62.0,62.0,29.83,NW,313,0.0,0.0,100,-99.99,,,-99.99,,2013-05-29 06:31:00,
2013-05-29 02:42:00,62.0,62.0,29.83,NW,313,0.0,0.0,100,-99.99,,,-99.99,,2013-05-29 06:42:00,
2013-05-29 02:52:00,62.0,62.0,29.82,NW,313,0.0,0.0,100,-99.99,,,-99.99,,2013-05-29 06:52:00,
2013-05-29 03:01:00,62.0,62.0,29.81,NW,313,0.0,1.0,100,-99.99,,,-99.99,,2013-05-29 07:01:00,
2013-05-29 03:11:00,62.0,62.0,29.81,NW,313,0.0,1.0,100,-99.99,,,-99.99,,2013-05-29 07:11:00,
2013-05-29 03:21:00,62.0,62.0,29.80,NW,313,0.0,2.0,100,-99.99,,,-99.99,,2013-05-29 07:21:00,
2013-05-29 03:34:00,62.0,62.0,29.81,SSE,148,0.0,2.0,100,-99.99,,,-99.99,,2013-05-29 07:34:00,
2013-05-29 03:42:00,62.0,62.0,29.81,SSE,148,0.0,2.0,100,-99.99,,,-99.99,,2013-05-29 07:42:00,
2013-05-29 03:52:00,62.0,62.0,29.81,SSE,148,0.0,1.0,100,-99.99,,,-99.99,,2013-05-29 07:52:00,
2013-05-29 04:02:00,62.0,62.0,29.81,SSE,148,0.0,2.0,100,-99.99,,,-99.99,,2013-05-29 08:02:00,
2013-05-29 04:11:00,62.0,62.0,29.81,SSE,148,0.0,2.0,100,-99.99,,,-99.99,,2013-05-29 08:11:00,
2013-05-29 04:21:00,64.0,64.0,29.81,WNW,302,1.0,2.0,100,-99.99,,,-99.99,,2013-05-29 08:21:00,
2013-05-29 04:32:00,66.0,66.0,29.82,NE,41,4.0,7.0,100,-99.99,,,-99.99,,2013-05-29 08:32:00,
2013-05-29 04:42:00,66.0,66.0,29.82,NE,41,4.0,7.0,100,-99.99,,,-99.99,,2013-05-29 08:42:00,
2013-05-29 04:52:00,67.0,67.0,29.83,SE,145,0.0,5.0,100,-99.99,,,-99.99,,2013-05-29 08:52:00,
2013-05-29 05:01:00,68.0,68.0,29.82,SE,143,1.0,3.0,100,-99.99,,,-99.99,,2013-05-29 09:01:00,
2013-05-29 05:11:00,68.0,68.0,29.82,SE,143,1.0,3.0,100,-99.99,,,-99.99,,2013-05-29 09:11:00,
2013-05-29 05:21:00,69.0,69.0,29.82,SSW,212,0.0,6.0,100,-99.99,,,-99.99,,2013-05-29 09:21:00,
2013-05-29 05:33:00,68.0,68.0,29.81,SSE,157,0.0,6.0,100,-99.99,,,-99.99,,2013-05-29 09:33:00,
2013-05-29 05:42:00,68.0,68.0,29.81,SSE,157,0.0,6.0,100,-99.99,,,-99.99,,2013-05-29 09:42:00,
2013-05-29 05:52:00,67.0,67.0,29.80,SE,130,0.0,6.0,100,-99.99,,,-99.99,,2013-05-29 09:52:00,
2013-05-29 06:02:00,67.0,67.0,29.79,ESE,117,3.0,6.0,100,-99.99,,,-99.99,,2013-05-29 10:02:00,
2013-05-29 06:12:00,67.0,67.0,29.79,ESE,117,3.0,6.0,100,-99.99,,,-99.99,,2013-05-29 10:12:00,
2013-05-29 06:22:00,68.0,68.0,29.80,SW,216,1.0,8.0,100,-99.99,,,-99.99,,2013-05-29 10:22:00,
2013-05-29 06:32:00,68.0,68.0,29.80,SE,143,2.0,5.0,100,-99.99,,,-99.99,,2013-05-29 10:32:00,
2013-05-29 06:42:00,68.0,68.0,29.80,SE,143,2.0,5.0,100,-99.99,,,-99.99,,2013-05-29 10:42:00,
2013-05-29 06:53:00,68.0,68.0,29.81,SSW,206,3.0,3.0,100,-99.99,,,-99.99,,2013-05-29 10:53:00,
2013-05-29 07:02:00,68.0,68.0,29.82,South,181,0.0,8.0,100,-99.99,,,-99.99,,2013-05-29 11:02:00,
2013-05-29 07:12:00,68.0,68.0,29.82,South,181,0.0,8.0,100,-99.99,,,-99.99,,2013-05-29 11:12:00,
2013-05-29 07:22:00,68.0,68.0,29.84,South,184,0.0,5.0,100,-99.99,,,-99.99,,2013-05-29 11:22:00,
2013-05-29 07:32:00,68.0,68.0,29.86,SSE,161,2.0,3.0,100,-99.99,,,-99.99,,2013-05-29 11:32:00,
2013-05-29 07:42:00,68.0,68.0,29.86,SSE,161,2.0,3.0,100,-99.99,,,-99.99,,2013-05-29 11:42:00,
2013-05-29 07:52:00,69.0,69.0,29.87,WNW,287,3.0,8.0,100,-99.99,,,-99.99,,2013-05-29 11:52:00,
2013-05-29 08:01:00,70.0,70.0,29.87,WSW,256,2.0,10.0,100,-99.99,,,-99.99,,2013-05-29 12:01:00,
2013-05-29 08:11:00,70.0,70.0,29.87,WSW,256,2.0,10.0,100,-99.99,,,-99.99,,2013-05-29 12:11:00,
2013-05-29 08:21:00,70.0,67.0,29.88,NE,51,6.0,6.0,91,-99.99,,,-99.99,,2013-05-29 12:21:00,
2013-05-29 08:32:00,71.0,67.0,29.88,WNW,284,5.0,7.0,88,-99.99,,,-99.99,,2013-05-29 12:32:00,
2013-05-29 08:42:00,71.0,67.0,29.88,WNW,284,5.0,7.0,88,-99.99,,,-99.99,,2013-05-29 12:42:00,
2013-05-29 08:52:00,71.0,67.0,29.88,WNW,284,0.0,9.0,86,-99.99,,,-99.99,,2013-05-29 12:52:00,
2013-05-29 09:02:00,70.0,66.0,29.87,WNW,287,0.0,0.0,88,-99.99,,,-99.99,,2013-05-29 13:02:00,
2013-05-29 09:11:00,70.0,66.0,29.87,WNW,287,0.0,0.0,88,-99.99,,,-99.99,,2013-05-29 13:11:00,
2013-05-29 09:21:00,70.0,67.0,29.89,WNW,285,1.0,3.0,91,-99.99,,,-99.99,,2013-05-29 13:21:00,
2013-05-29 09:32:00,70.0,67.0,29.89,WSW,257,2.0,2.0,90,-99.99,,,-99.99,,2013-05-29 13:32:00,
2013-05-29 09:42:00,70.0,67.0,29.89,WSW,257,2.0,2.0,90,-99.99,,,-99.99,,2013-05-29 13:42:00,
2013-05-29 09:53:00,70.0,66.0,29.89,South,178,1.0,5.0,88,-99.99,,,-99.99,,2013-05-29 13:53:00,
2013-05-29 10:02:00,71.0,67.0,29.89,WSW,256,1.0,3.0,86,-99.99,,,-99.99,,2013-05-29 14:02:00,
2013-05-29 10:11:00,71.0,67.0,29.89,WSW,256,1.0,3.0,86,-99.99,,,-99.99,,2013-05-29 14:11:00,
2013-05-29 10:21:00,74.0,68.0,29.90,WNW,285,1.0,1.0,82,-99.99,,,-99.99,,2013-05-29 14:21:00,
2013-05-29 10:32:00,75.0,68.0,29.90,SW,220,6.0,7.0,80,-99.99,,,-99.99,,2013-05-29 14:32:00,
2013-05-29 10:41:00,75.0,68.0,29.90,SW,220,6.0,7.0,80,-99.99,,,-99.99,,2013-05-29 14:41:00,
2013-05-29 10:52:00,75.0,67.0,29.90,North,354,3.0,12.0,77,-99.99,,,-99.99,,2013-05-29 14:52:00,
2013-05-29 11:01:00,77.0,68.0,29.90,West,277,1.0,8.0,73,-99.99,,,-99.99,,2013-05-29 15:01:00,
2013-05-29 11:11:00,77.0,67.0,29.91,East,79,0.0,13.0,71,-99.99,,,-99.99,,2013-05-29 15:11:00,
2013-05-29 11:21:00,77.0,67.0,29.91,East,79,0.0,13.0,71,-99.99,,,-99.99,,2013-05-29 15:21:00,
2013-05-29 11:33:00,78.0,67.0,29.92,West,270,1.0,7.0,68,-99.99,,,-99.99,,2013-05-29 15:33:00,
2013-05-29 11:42:00,78.0,67.0,29.92,West,270,1.0,7.0,68,-99.99,,,-99.99,,2013-05-29 15:42:00,
2013-05-29 11:53:00,79.0,67.0,29.93,WNW,285,6.0,11.0,66,-99.99,,,-99.99,,2013-05-29 15:53:00,
2013-05-29 12:03:00,79.0,66.0,29.93,NNW,332,7.0,18.0,64,-99.99,,,-99.99,,2013-05-29 16:03:00,
2013-05-29 12:12:00,79.0,66.0,29.93,NNW,332,7.0,18.0,64,-99.99,,,-99.99,,2013-05-29 16:12:00,
2013-05-29 12:22:00,77.0,66.0,29.94,WNW,292,4.0,10.0,68,-99.99,,,-99.99,,2013-05-29 16:22:00,
2013-05-29 12:32:00,76.0,66.0,29.94,WSW,241,0.0,2.0,72,-99.99,,,-99.99,,2013-05-29 16:32:00,
2013-05-29 12:42:00,76.0,66.0,29.94,WSW,241,0.0,2.0,72,-99.99,,,-99.99,,2013-05-29 16:42:00,
2013-05-29 12:52:00,75.0,67.0,29.94,NW,318,0.0,3.0,76,-99.99,,,-99.99,,2013-05-29 16:52:00,
2013-05-29 13:02:00,76.0,67.0,29.94,West,267,2.0,6.0,75,-99.99,,,-99.99,,2013-05-29 17:02:00,
2013-05-29 13:12:00,76.0,67.0,29.94,West,267,2.0,6.0,75,-99.99,,,-99.99,,2013-05-29 17:12:00,
2013-05-29 13:22:00,77.0,69.0,29.94,WNW,292,1.0,2.0,76,-99.99,,,-99.99,,2013-05-29 17:22:00,
2013-05-29 13:32:00,77.0,71.0,29.94,West,265,0.0,1.0,81,-99.99,,,-99.99,,2013-05-29 17:32:00,
2013-05-29 13:42:00,77.0,71.0,29.94,West,265,0.0,1.0,81,-99.99,,,-99.99,,2013-05-29 17:42:00,
2013-05-29 13:52:00,77.0,71.0,29.94,WSW,257,2.0,5.0,81,-99.99,,,-99.99,,2013-05-29 17:52:00,
2013-05-29 14:01:00,77.0,70.0,29.94,North,356,0.0,2.0,78,-99.99,,,-99.99,,2013-05-29 18:01:00,
2013-05-29 14:13:00,76.0,70.0,29.94,SW,216,0.0,1.0,83,-99.99,,,-99.99,,2013-05-29 18:13:00,
2013-05-29 14:22:00,76.0,70.0,29.94,SW,216,0.0,1.0,83,-99.99,,,-99.99,,2013-05-29 18:22:00,
2013-05-29 14:32:00,77.0,72.0,29.94,North,357,2.0,4.0,85,-99.99,,,-99.99,,2013-05-29 18:32:00,
2013-05-29 14:42:00,77.0,72.0,29.94,North,357,2.0,4.0,85,-99.99,,,-99.99,,2013-05-29 18:42:00,
2013-05-29 14:52:00,78.0,72.0,29.94,WSW,239,1.0,3.0,83,-99.99,,,-99.99,,2013-05-29 18:52:00,
2013-05-29 15:02:00,78.0,72.0,29.94,ESE,102,2.0,5.0,81,-99.99,,,-99.99,,2013-05-29 19:02:00,
2013-05-29 15:11:00,79.0,71.0,29.93,NNW,343,1.0,3.0,77,-99.99,,,-99.99,,2013-05-29 19:11:00,
2013-05-29 15:21:00,79.0,71.0,29.93,NNW,343,1.0,3.0,77,-99.99,,,-99.99,,2013-05-29 19:21:00,
2013-05-29 15:32:00,79.0,72.0,29.93,ESE,123,2.0,5.0,78,-99.99,,,-99.99,,2013-05-29 19:32:00,
2013-05-29 15:44:00,79.0,71.0,29.92,SSW,205,0.0,2.0,77,-99.99,,,-99.99,,2013-05-29 19:44:00,
2013-05-29 15:53:00,79.0,71.0,29.92,SSW,205,0.0,2.0,77,-99.99,,,-99.99,,2013-05-29 19:53:00,
2013-05-29 16:02:00,82.0,73.0,29.92,South,186,1.0,3.0,74,-99.99,,,-99.99,,2013-05-29 20:02:00,
2013-05-29 16:11:00,82.0,73.0,29.92,South,186,1.0,3.0,74,-99.99,,,-99.99,,2013-05-29 20:11:00,
2013-05-29 16:22:00,82.0,72.0,29.92,South,181,3.0,8.0,71,-99.99,,,-99.99,,2013-05-29 20:22:00,
2013-05-29 16:33:00,81.0,72.0,29.91,SSE,158,6.0,7.0,75,-99.99,,,-99.99,,2013-05-29 20:33:00,
2013-05-29 16:42:00,81.0,72.0,29.91,SSE,158,6.0,7.0,75,-99.99,,,-99.99,,2013-05-29 20:42:00,
2013-05-29 16:52:00,82.0,71.0,29.90,ESE,113,0.0,3.0,69,-99.99,,,-99.99,,2013-05-29 20:52:00,
2013-05-29 17:02:00,83.0,73.0,29.90,West,272,3.0,3.0,72,-99.99,,,-99.99,,2013-05-29 21:02:00,
2013-05-29 17:12:00,83.0,73.0,29.90,West,272,3.0,3.0,72,-99.99,,,-99.99,,2013-05-29 21:12:00,
2013-05-29 17:22:00,83.0,72.0,29.90,WSW,248,2.0,6.0,70,-99.99,,,-99.99,,2013-05-29 21:22:00,
2013-05-29 17:33:00,81.0,72.0,29.89,SE,130,1.0,3.0,75,-99.99,,,-99.99,,2013-05-29 21:33:00,
2013-05-29 17:43:00,81.0,72.0,29.89,SE,130,1.0,3.0,75,-99.99,,,-99.99,,2013-05-29 21:43:00,
2013-05-29 17:53:00,81.0,76.0,29.90,SSE,168,1.0,3.0,84,-99.99,,,-99.99,,2013-05-29 21:53:00,
2013-05-29 18:03:00,83.0,70.0,29.89,SW,216,6.0,11.0,66,-99.99,,,-99.99,,2013-05-29 22:03:00,
2013-05-29 18:12:00,83.0,70.0,29.89,SW,216,6.0,11.0,66,-99.99,,,-99.99,,2013-05-29 22:12:00,
2013-05-29 18:23:00,83.0,70.0,29.90,SW,233,3.0,7.0,65,-99.99,,,-99.99,,2013-05-29 22:23:00,
2013-05-29 18:33:00,83.0,69.0,29.89,SE,144,1.0,11.0,62,-99.99,,,-99.99,,2013-05-29 22:33:00,
2013-05-29 18:42:00,83.0,70.0,29.88,SE,133,2.0,2.0,64,-99.99,,,-99.99,,2013-05-29 22:42:00,
2013-05-29 18:53:00,83.0,70.0,29.88,SE,133,2.0,2.0,64,-99.99,,,-99.99,,2013-05-29 22:53:00,
2013-05-29 19:02:00,83.0,70.0,29.88,South,176,5.0,5.0,64,-99.99,,,-99.99,,2013-05-29 23:02:00,
2013-05-29 19:12:00,83.0,70.0,29.88,South,176,5.0,5.0,64,-99.99,,,-99.99,,2013-05-29 23:12:00,
2013-05-29 19:21:00,82.0,68.0,29.88,SE,134,4.0,8.0,63,-99.99,,,-99.99,,2013-05-29 23:21:00,
2013-05-29 19:33:00,82.0,69.0,29.88,South,186,6.0,6.0,64,-99.99,,,-99.99,,2013-05-29 23:33:00,
2013-05-29 19:42:00,81.0,69.0,29.87,SSE,160,2.0,5.0,68,-99.99,,,-99.99,,2013-05-29 23:42:00,
2013-05-29 19:53:00,81.0,69.0,29.87,SSE,160,2.0,5.0,68,-99.99,,,-99.99,,2013-05-29 23:53:00,
2013-05-29 20:01:00,81.0,70.0,29.88,SSE,162,3.0,5.0,69,-99.99,,,-99.99,,2013-05-30 00:01:00,
2013-05-29 20:11:00,81.0,70.0,29.88,SSE,162,3.0,5.0,69,-99.99,,,-99.99,,2013-05-30 00:11:00,
2013-05-29 20:21:00,80.0,69.0,29.88,ESE,119,1.0,4.0,70,-99.99,,,-99.99,,2013-05-30 00:21:00,
2013-05-29 20:31:00,79.0,69.0,29.88,SSE,152,2.0,3.0,71,-99.99,,,-99.99,,2013-05-30 00:31:00,
2013-05-29 20:42:00,79.0,69.0,29.88,SSE,152,2.0,3.0,71,-99.99,,,-99.99,,2013-05-30 00:42:00,
2013-05-29 20:52:00,79.0,69.0,29.88,SSE,161,2.0,4.0,72,-99.99,,,-99.99,,2013-05-30 00:52:00,
2013-05-29 21:01:00,78.0,68.0,29.88,SE,144,1.0,3.0,72,-99.99,,,-99.99,,2013-05-30 01:01:00,
2013-05-29 21:11:00,78.0,68.0,29.88,SE,144,1.0,3.0,72,-99.99,,,-99.99,,2013-05-30 01:11:00,
2013-05-29 21:21:00,77.0,68.0,29.89,SSE,147,1.0,2.0,75,-99.99,,,-99.99,,2013-05-30 01:21:00,
2013-05-29 21:32:00,76.0,68.0,29.88,SSE,147,0.0,1.0,77,-99.99,,,-99.99,,2013-05-30 01:32:00,
2013-05-29 21:41:00,76.0,68.0,29.88,SSE,147,0.0,1.0,77,-99.99,,,-99.99,,2013-05-30 01:41:00,
2013-05-29 21:52:00,75.0,70.0,29.89,SSE,147,0.0,0.0,85,-99.99,,,-99.99,,2013-05-30 01:52:00,
2013-05-29 22:01:00,74.0,69.0,29.89,SSE,147,0.0,0.0,85,-99.99,,,-99.99,,2013-05-30 02:01:00,
2013-05-29 22:11:00,74.0,69.0,29.89,SSE,147,0.0,0.0,85,-99.99,,,-99.99,,2013-05-30 02:11:00,
2013-05-29 22:21:00,72.0,69.0,29.90,SSE,147,0.0,0.0,89,-99.99,,,-99.99,,2013-05-30 02:21:00,
2013-05-29 22:32:00,72.0,69.0,29.90,SSE,148,1.0,3.0,90,-99.99,,,-99.99,,2013-05-30 02:32:00,
2013-05-29 22:42:00,72.0,69.0,29.90,SSE,148,1.0,3.0,90,-99.99,,,-99.99,,2013-05-30 02:42:00,
2013-05-29 22:52:00,72.0,69.0,29.90,SSE,148,1.0,3.0,90,-99.99,,,-99.99,,2013-05-30 02:52:00,
2013-05-29 23:01:00,71.0,68.0,29.90,SSE,148,1.0,2.0,91,-99.99,,,-99.99,,2013-05-30 03:01:00,
2013-05-29 23:11:00,71.0,68.0,29.90,South,169,0.0,2.0,90,-99.99,,,-99.99,,2013-05-30 03:11:00,
2013-05-29 23:21:00,71.0,68.0,29.90,South,169,0.0,2.0,90,-99.99,,,-99.99,,2013-05-30 03:21:00,
2013-05-29 23:33:00,71.0,68.0,29.91,South,178,0.0,2.0,89,-99.99,,,-99.99,,2013-05-30 03:33:00,
2013-05-29 23:43:00,71.0,68.0,29.91,South,178,0.0,2.0,89,-99.99,,,-99.99,,2013-05-30 03:43:00,
2013-05-29 23:53:00,70.0,67.0,29.91,SSE,157,0.0,1.0,90,-99.99,,,-99.99,,2013-05-30 03:53:00,